Regional Weather Roundup
Issued by NWS

Home | Current Version | Previous Version | Graphics & Text | Print | Product List | Glossary On
Versions: 1 2 3 4 5 6 7 8 9 10 11 12 13 14 15 16 17 18 19 20 21 22 23 24 25 26 27 28 29 30 31 32 33 34 35 36 37 38 39 40 41 42 43 44 45 46 47 48 49 50
000
ASUS45 KSLC 290010
RWRUT

UTAH REGIONAL WEATHER ROUNDUP
NATIONAL WEATHER SERVICE SALT LAKE CITY UT
600 PM MDT MON JUL 28 2014

UTZ001>011-023>025-290100-

NORTHERN UTAH

CITY           SKY/WX    TMP DP  RH WIND       PRES   REMARKS
HILL AFB       LGT RAIN  75  56  51 E18G29    30.22S
LOGAN          LGT RAIN  78  55  44 S20G31    30.19R
OGDEN          LGT RAIN  79  52  38 SE15      30.18S
PROVO AIRPORT  LGT RAIN  70  63  78 E7        30.25R
SALT LAKE CITY LGT RAIN  68  62  81 SE22      30.24R
VERNAL         CLOUDY    79  51  37 S14       30.24R
WENDOVER       CLOUDY    86  46  25 W24       30.13R
HEBER CITY     CLOUDY    68  57  68 CALM      30.33S
WEST JORDAN    CLOUDY    70  68  94 E6        30.28R

$$

UTZ012>022-026-027-290100-

SOUTHERN UTAH

CITY           SKY/WX    TMP DP  RH WIND       PRES   REMARKS
BRYCE CANYON   CLOUDY    63  52  67 NW15      30.44R THUNDER
CEDAR CITY     CLOUDY    81  50  33 SW14G20   30.26S
MILFORD        PTSUNNY   88  50  27 VRB6      30.19F
MOAB/CYNLANDS  SUNNY     88  50  27 SE10      30.14F
PRICE          LGT RAIN  69  58  67 W18G25    30.30R
ST GEORGE      CLOUDY    93  52  24 SW5       30.07F HX  90
KANAB            N/A     77  57  50 S10       30.27R

$$

REGIONAL REPORTS     COLORADO/ARIZONA

CITY           SKY/WX    TMP DP  RH WIND       PRES   REMARKS
CRAIG, CO      CLOUDY    73  48  41 SW15      30.27R
GRAND JUNCTION PTSUNNY   84  52  33 W8        30.18F
RIFLE          LGT RAIN  71  55  56 E20G29    30.28R
MONTROSE       PTSUNNY   84  48  28 N7        30.26F
CORTEZ         SUNNY     75  53  46 NE14      30.29S
PAGE, AZ       CLOUDY    90  49  24 VRB6      30.15S
GRAND CANYON   CLOUDY    72  52  49 VRB3      30.38F
KINGMAN        PTSUNNY   85  58  39 N20       30.11S
FLAGSTAFF      CLOUDY    66  52  60 VRB5      30.40F

$$

REGIONAL REPORTS    NEVADA/IDAHO/WYOMING

CITY           SKY/WX    TMP DP  RH WIND       PRES   REMARKS
LAS VEGAS, NV  CLOUDY    89  60  37 SW13      29.99F
ELY            CLOUDY    69  59  70 NW6       30.34F
ELKO           CLOUDY    81  46  29 S17G26    30.19R
POCATELLO, ID  SUNNY     88  44  21 NW13      30.15F
BURLEY         MOSUNNY   89  49  25 NE6       30.12F
EVANSTON, WY   PTSUNNY   63  52  67 SW24      30.40S
ROCK SPRINGS   CLOUDY    85  25  11 E3        30.27F

$$


USA.gov is the U.S. government's official web portal to all federal, state and local government web resources and services.